Regional Weather Roundup
Issued by NWS

Home | Current Version | Previous Version | Text Only | Print | Product List | Glossary Off
Versions: 1 2 3 4 5 6 7 8 9 10 11 12 13 14 15 16 17 18 19 20 21 22 23 24 25 26 27 28 29 30 31 32 33 34 35 36 37 38 39 40 41 42 43 44 45 46 47 48 49 50

000
ASUS45 KBOU 010507
RWRCO

WEATHER ROUNDUP FOR COLORADO
NATIONAL WEATHER SERVICE DENVER/BOULDER CO
1100 PM MDT TUE MAR 31 2015

NOTE: "FAIR" INDICATES FEW OR NO CLOUDS BELOW 12000 FEET WITH NO
SIGNIFICANT WEATHER AND/OR OBSTRUCTIONS TO VISIBILITY.

COZ001>005-013-030-031-010600-
...NORTHWEST COLORADO...

CITY           SKY/WX    TMP DP  RH WIND       PRES   REMARKS
CRAIG          CLOUDY    50  26  39 CALM      29.86F
HAYDEN         CLOUDY    52  18  25 CALM      29.89F
MEEKER         MOCLDY    49  24  37 NE9       29.88F
MOUNT WERNER   NOT AVBL
STEAMBOAT SPGS CLOUDY    52  22  30 E9        29.90F
WALDEN         MOCLDY    37  19  48 E8        29.96F
$$

COZ006>008-011-010600-
...WEST CENTRAL VALLEYS...

CITY           SKY/WX    TMP DP  RH WIND       PRES   REMARKS
GRAND JUNCTION MOCLDY    55  18  23 E7        29.82F
MONTROSE       MOCLDY    55  20  25 SE7       29.94S
EAGLE          PTCLDY    50  25  37 CALM      29.95S
RIFLE          MOCLDY    54  25  32 CALM      29.86F
DELTA          MOCLDY    57  24  27 NE6       29.89S
NUCLA          MOCLDY    52  19  28 E9        29.96F
$$

COZ017>023-064>068-010600-
...SOUTHWEST COLORADO...

CITY           SKY/WX    TMP DP  RH WIND       PRES   REMARKS
DURANGO        PTCLDY    45  24  43 N7        30.01S
CORTEZ         MOCLDY    50  24  36 E8        29.96S
PAGOSA SPRINGS PTCLDY    42  22  44 CALM      30.07S
TELLURIDE      NOT AVBL
WOLF CREEK PAS CLEAR     32  16  51 SW21G26   30.26F WCI  20
$$

COZ009-010-012-014-032>034-037-058>063-010600-
...CENTRAL COLORADO...

CITY           SKY/WX    TMP DP  RH WIND       PRES   REMARKS
ASPEN          MOCLDY    46  23  40 SW13      30.00F
BUENA VISTA    MOCLDY    43  22  43 CALM      30.03F
COPPER MTN     MOCLDY    37  18  44 S17G24    30.20F
BERTHOUD PASS  FAIR      32  27  80 W17G26    30.22F WCI  21
COTTONWOOD PAS MOCLDY    48  12  23 SW3       30.12S
GUNNISON       PTCLDY    37  21  52 CALM      30.08S
KREMMLING      MOCLDY    43  23  45 CALM      29.97F
LEADVILLE      NOT AVBL
SALIDA         MOCLDY    49  22  35 SW10      30.09F
SUNLIGHT       MOCLDY    39  21  48 CALM      30.15S
WILKERSON PASS PTCLDY    36  18  48 SW8G17    30.19F
$$

COZ069>075-010600-
...SAN LUIS VALLEY/SANGRE DE CRISTO MOUNTAINS...

CITY           SKY/WX    TMP DP  RH WIND       PRES   REMARKS
ALAMOSA        CLEAR     41  19  41 CALM      30.04F
LA VETA PASS   CLEAR     39  18  41 S8        30.16S
SAGUACHE       CLEAR     37  19  48 N9        30.05F
$$

COZ035-036-038>040-010600-
...NORTHERN COLORADO FRONT RANGE...

CITY           SKY/WX    TMP DP  RH WIND       PRES   REMARKS
DENVER INTL AP LGT RAIN  60  22  23 S18       29.81F
DMNS CITY PARK   N/A     58  25  28 SW2       29.80F
AURORA         PTCLDY    58  21  24 S16       29.83F
FRONT RANGE AP NOT AVBL
ERIE MUNI ARPT PTCLDY    53  24  32 CALM      29.79F
BOULDER MUN AP PTCLDY    63  21  20 SW5       29.80F
CENTENNIAL     PTCLDY    56  21  25 SW9       29.85F
BROOMFIELD     NOT AVBL
FORT COLLINS   MOCLDY    61  21  21 SW6       29.80F
LONGMONT       MOCLDY    56  25  30 W8        29.81F
$$

COZ041-046-047-076>085-087-088-010600-
...PIKES PEAK/PALMER DIVIDE AND SOUTHERN FOOTHILLS...

CITY           SKY/WX    TMP DP  RH WIND       PRES   REMARKS
COLO. SPRINGS  PTCLDY    51  20  29 E7        29.91F
A. F. ACADEMY  CLEAR     53  18  24 VRB5      29.91F
ELLICOTT       CLEAR    N/A N/A N/A SE10      29.89F
FALCON         CLEAR     49  17  27 CALM      29.95F
FORT CARSON    CLEAR     57  22  25 W5        29.88F
LIMON          CLEAR     44  22  41 E6        29.88F
MONUMENT HILL  PTCLDY    43  21  42 S8        29.93F
TRINIDAD       CLEAR     53  21  28 SW17      29.93F
$$

COZ042>045-048>051-090-091-010600-
...NORTHEAST COLORADO...

CITY           SKY/WX    TMP DP  RH WIND       PRES   REMARKS
GREELEY ARPT   PTCLDY    52  19  28 SE8       29.76F
AKRON          CLEAR     59  22  24 S18       29.82F
BURLINGTON     CLEAR     58  27  30 S18       29.85F
WRAY           CLEAR     63  22  21 S15G22    29.79F
STERLING       CLEAR     54  25  32 S13       29.76F
HOLYOKE        NOT AVBL
FORT MORGAN    CLEAR     53 -41   1 SE9       29.79F
$$

COZ086-089-092>099-010600-
...SOUTHEAST COLORADO...

CITY           SKY/WX    TMP DP  RH WIND       PRES   REMARKS
PUEBLO         CLEAR     49  22  34 NW6       29.83F
LA JUNTA       CLEAR     57  24  28 SW9       29.84S
LAMAR          CLEAR     61  34  36 S16       29.81F
SPRINGFIELD      N/A     50  35  56 S9        29.88F
$$



USA.gov is the U.S. government's official web portal to all federal, state and local government web resources and services.